Regional Weather Roundup
Issued by NWS Spokane, WA

Home | Current Version | Previous Version | Text Only | Print | Product List | Glossary On
Versions: 1 2 3 4 5 6 7 8 9 10 11 12 13 14 15 16 17 18 19 20 21 22 23 24 25 26 27 28 29 30 31 32 33 34 35 36 37 38 39 40 41 42 43 44 45 46 47 48 49 50
912
NZUS01 KOTX 050900
RWROTX

Eastern Washington/Northern Idaho Roundup
National Weather Service, Spokane WA
100 AM PST MON DEC 05 2016

Note: "fair" indicated few or no clouds below 12,000 feet with no
significant weather and/or obstructions to visibility.

...Northeast Washington and Northern Idaho Panhandle...

CITY           SKY/WX    TMP DP  RH WIND       PRES   REMARKS
Spokane Intl   CLEAR     23  14  68 W7        29.98R WCI  15
Spokane Downto CLEAR     27  17  66 CALM      30.00R
Coeur d Alene  CLEAR     25  16  68 SW9       29.96R WCI  15
Deer Park      CLEAR     21  13  71 SE5       29.98R WCI  15

...Southeast Washington and southern Idaho Panhandle...

CITY           SKY/WX    TMP DP  RH WIND       PRES   REMARKS
Walla Walla    CLEAR     30  22  72 S9        30.12R WCI  22
Pullman/Moscow CLEAR     26  20  77 W15       30.02R WCI  14
Lowell           N/A     30  27  88 CALM      30.08R

...Columbia Basin...

CITY           SKY/WX    TMP DP  RH WIND       PRES   REMARKS
Ephrata        PTCLDY    26  13  57 W7        30.04S WCI  18
Moses Lake     PTCLDY    28  18  66 S8        30.06R WCI  20
Pasco          CLEAR     29  20  69 E5        30.13S WCI  24
Hermiston      PTCLDY    32  23  69 SW6       30.13S WCI  26
Pendleton      CLEAR     30  20  66 S5        30.10S WCI  25

...East Slopes Cascades...

CITY           SKY/WX    TMP DP  RH WIND       PRES   REMARKS
The Dalles     PTCLDY    39  30  70 NW8       30.16F
Yakima         CLEAR     23  16  74 W6        30.09S WCI  16
Ellensburg     CLEAR     29  22  75 W8        30.05S WCI  21
Wenatchee      CLEAR     31  20  63 N9        30.05R WCI  23
Omak           CLEAR     21  14  74 NW5       30.05R WCI  15
Sunnyside      SUNNY     24  19  81 NE7       30.11S WCI  16

...Southern British Columbia...

CITY           SKY/WX    TMP DP  RH WIND       PRES   REMARKS

...Western Montana...

CITY           SKY/WX    TMP DP  RH WIND       PRES   REMARKS
Kalispell      FLURRIES  24  19  81 N17       29.78R WCI  11
Missoula       CLOUDY    26  18  71 SW7       29.85R WCI  18

...Neighboring Cities...

CITY           SKY/WX    TMP DP  RH WIND       PRES   REMARKS
Seattle        MOCLDY    36  32  85 S14       30.14F
Portland       LGT RAIN  38  34  85 CALM      30.26S
Boise          CLEAR     27  17  66 NW7       30.05R WCI  19
Great Falls    LGT SNOW  19  16  88 NW10      29.79R FOG     WCI   7



USA.gov is the U.S. government's official web portal to all federal, state and local government web resources and services.